Regional Weather Roundup
Issued by NWS

Home | Current Version | Previous Version | Graphics & Text | Print | Product List | Glossary On
Versions: 1 2 3 4 5 6 7 8 9 10 11 12 13 14 15 16 17 18 19 20 21 22 23 24 25 26 27 28 29 30 31 32 33 34 35 36 37 38 39 40 41 42 43 44 45 46 47 48 49 50
000
ASUS45 KCYS 292210
RWRWY

WYOMING REGIONAL WEATHER ROUNDUP
NATIONAL WEATHER SERVICE CHEYENNE WY
300 PM MST THU JAN 29 2015

NOTE:  "FAIR" INDICATES FEW OR NO CLOUDS BELOW 12,000 FEET
WITH NO SIGNIFICANT WEATHER AND/OR OBSTRUCTIONS TO VISIBILITY.

WYZ001-292300-
YELLOWSTONE NATIONAL PARK

CITY           SKY/WX    TMP DP  RH WIND       PRES   REMARKS
LK YELLOWSTONE   N/A     20  15  81 CALM      30.36F
W YELLOWSTONE  NOT AVBL

$$
WYZ002>013-054>058-071-098>099-292300-
NORTHERN WYOMING

CITY           SKY/WX    TMP DP  RH WIND       PRES   REMARKS
JACKSON        SUNNY     30  25  80 CALM      30.36F
CODY           FAIR      43  30  61 SE12      30.29S
GREYBULL       FOG       34  32  92 CALM      30.33F VSB 1/4
WORLAND        FAIR      39  31  72 SE9       30.32F WCI  33
SHERIDAN       FAIR      48  22  35 SE13      30.29F
BUFFALO        FAIR      45  23  42 SE12      30.30F
GILLETTE       FAIR      47  22  37 S9        30.32F
HULETT           N/A    N/A N/A N/A MISG        N/A
NEWCASTLE      FAIR      43  19  39 NW5       30.38F

$$
WYZ014>020-022>026-101>103-292300-
CENTRAL WYOMING

CITY           SKY/WX    TMP DP  RH WIND       PRES   REMARKS
BIG PINEY      FAIR      36  24  62 E6        30.37F WCI  31
PINEDALE       FAIR      32  27  80 N6        30.38F WCI  26
DUBOIS         FAIR      37  18  44 CALM      30.30F
LANDER         FAIR      40  28  62 CALM      30.31F
RIVERTON       FAIR      42  29  59 E6        30.34F
CASPER         FAIR      45  26  47 S13       30.34F
DOUGLAS        FAIR      46  21  37 S8        30.37F

$$
WYZ021-027>030-104>119-292300-
SOUTHERN WYOMING

CITY           SKY/WX    TMP DP  RH WIND       PRES   REMARKS
EVANSTON       PTSUNNY   34  28  79 E12       30.32F WCI  25
KEMMERER       FAIR      36  28  75 NE12      30.33F WCI  27
FORT BRIDGER   MOCLDY    35  32  87 N7        30.36F WCI  30
ROCK SPRINGS   FAIR      38  30  73 NE7       30.33F WCI  33
DIXON          FAIR      43  32  65 W6        30.36S
RAWLINS        FAIR      43  26  51 VRB5      30.34F
SARATOGA       FAIR      43  21  42 CALM      30.34S
LARAMIE        FAIR      38  25  59 SE15      30.35S WCI  29
CHEYENNE       FAIR      43  23  45 S13       30.38F
TORRINGTON     FAIR      48  17  29 SE6       30.39F
PINE BLUFFS    FAIR      45  19  36 CALM      30.40F

$$


USA.gov is the U.S. government's official web portal to all federal, state and local government web resources and services.